Location: North Runcton
(52.7000°N, 0.4333°E)
Time: 19:57:02
(UTC+00:00)

NOSS 7 (H) - Pass Details

Date: 19 May 2025
Orbit: 362 x 1534 km, 63.3° (Epoch: 21 June)

Event Time Altitude Azimuth Distance (km) Brightness Sun altitude
Rises 20:54:07 0° 312° (NW) 2,220 10.4 -7.5°
Reaches altitude 10° 20:56:05 10° 312° (NW) 1,359 8.6 -7.7°
Maximum altitude 20:58:58 81° 224° (SW) 387 4.0 -8.0°
Enters shadow 21:01:53 12° 138° (SE) 1,382 6.2 -8.2°
